Time,TemperatureF,DewpointF,PressureIn,WindDirection,WindDirectionDegrees,WindSpeedMPH,WindSpeedGustMPH,Humidity,HourlyPrecipIn,Conditions,Clouds,dailyrainin,SoftwareType,DateUTC
2013-06-01 00:00:00,76.0,71.9,30.08,East,90,2.0,5.0,87,0.00,,---,0.00,VWS V14.01,2013-06-01 04:00:00,
2013-06-01 00:01:00,76.0,71.9,30.08,East,90,3.0,6.0,87,0.00,,---,0.00,VWS V14.01,2013-06-01 04:01:00,
2013-06-01 00:03:00,76.0,71.9,30.09,ESE,112,5.0,7.0,87,0.00,,---,0.00,VWS V14.01,2013-06-01 04:03:00,
2013-06-01 00:06:00,76.0,71.9,30.09,East,90,3.0,7.0,87,0.00,,---,0.00,VWS V14.01,2013-06-01 04:06:00,
2013-06-01 00:07:00,76.0,71.9,30.09,East,90,3.0,6.0,87,0.00,,---,0.00,VWS V14.01,2013-06-01 04:07:00,
2013-06-01 00:12:00,76.0,71.9,30.09,East,90,4.0,11.0,87,0.00,,---,0.00,VWS V14.01,2013-06-01 04:12:00,
2013-06-01 00:17:00,76.0,71.9,30.08,East,90,2.0,6.0,87,0.00,,---,0.00,VWS V14.01,2013-06-01 04:17:00,
2013-06-01 00:21:00,76.0,71.9,30.08,East,90,4.0,8.0,87,0.00,,---,0.00,VWS V14.01,2013-06-01 04:21:00,
2013-06-01 00:26:00,76.0,71.9,30.08,East,90,4.0,11.0,87,0.00,,---,0.00,VWS V14.01,2013-06-01 04:26:00,
2013-06-01 00:31:00,76.0,71.2,30.08,ESE,112,2.0,6.0,85,0.00,,---,0.00,VWS V14.01,2013-06-01 04:31:00,
2013-06-01 00:36:00,76.0,70.8,30.08,East,90,6.0,6.0,84,0.00,,---,0.00,VWS V14.01,2013-06-01 04:36:00,
2013-06-01 00:41:00,76.0,71.2,30.08,East,90,1.0,7.0,85,0.00,,---,0.00,VWS V14.01,2013-06-01 04:41:00,
2013-06-01 00:46:00,76.0,71.5,30.07,East,90,7.0,9.0,86,0.00,,---,0.00,VWS V14.01,2013-06-01 04:46:00,
2013-06-01 00:51:00,76.0,71.9,30.07,East,90,4.0,6.0,87,0.00,,---,0.00,VWS V14.01,2013-06-01 04:51:00,
2013-06-01 00:56:00,76.0,71.9,30.07,East,90,3.0,6.0,87,0.00,,---,0.00,VWS V14.01,2013-06-01 04:56:00,
2013-06-01 01:01:00,76.0,71.9,30.07,East,90,1.0,7.0,87,0.00,,---,0.00,VWS V14.01,2013-06-01 05:01:00,
2013-06-01 01:06:00,76.0,72.2,30.07,ESE,112,2.0,3.0,88,0.00,,---,0.00,VWS V14.01,2013-06-01 05:06:00,
2013-06-01 01:11:00,76.0,72.2,30.07,East,90,3.0,8.0,88,0.00,,---,0.00,VWS V14.01,2013-06-01 05:11:00,
2013-06-01 01:16:00,76.0,72.2,30.06,East,90,6.0,8.0,88,0.00,,---,0.00,VWS V14.01,2013-06-01 05:16:00,
2013-06-01 01:21:00,76.0,72.2,30.06,East,90,3.0,5.0,88,0.00,,---,0.00,VWS V14.01,2013-06-01 05:21:00,
2013-06-01 01:26:00,76.0,72.5,30.06,East,90,2.0,5.0,89,0.00,,---,0.00,VWS V14.01,2013-06-01 05:26:00,
2013-06-01 01:31:00,76.0,72.9,30.06,East,90,6.0,6.0,90,0.00,,---,0.00,VWS V14.01,2013-06-01 05:31:00,
2013-06-01 01:36:00,76.0,72.9,30.05,East,90,6.0,6.0,90,0.00,,---,0.00,VWS V14.01,2013-06-01 05:36:00,
2013-06-01 01:41:00,76.0,72.9,30.05,East,90,5.0,8.0,90,0.00,,---,0.00,VWS V14.01,2013-06-01 05:41:00,
2013-06-01 01:46:00,76.0,72.9,30.05,ESE,112,2.0,4.0,90,0.00,,---,0.00,VWS V14.01,2013-06-01 05:46:00,
2013-06-01 01:51:00,76.0,72.9,30.05,ESE,112,4.0,4.0,90,0.00,,---,0.00,VWS V14.01,2013-06-01 05:51:00,
2013-06-01 01:56:00,76.0,72.9,30.05,East,90,5.0,9.0,90,0.00,,---,0.00,VWS V14.01,2013-06-01 05:56:00,
2013-06-01 02:01:00,76.0,72.9,30.05,East,90,7.0,8.0,90,0.00,,---,0.00,VWS V14.01,2013-06-01 06:01:00,
2013-06-01 02:06:00,76.0,72.5,30.04,East,90,1.0,7.0,89,0.00,,---,0.00,VWS V14.01,2013-06-01 06:06:00,
2013-06-01 02:11:00,76.0,72.5,30.04,East,90,5.0,7.0,89,0.00,,---,0.00,VWS V14.01,2013-06-01 06:11:00,
2013-06-01 02:16:00,76.0,72.5,30.04,East,90,1.0,6.0,89,0.00,,---,0.00,VWS V14.01,2013-06-01 06:16:00,
2013-06-01 02:21:00,75.0,71.2,30.04,East,90,4.0,6.0,88,0.00,,---,0.00,VWS V14.01,2013-06-01 06:21:00,
2013-06-01 02:26:00,76.0,72.9,30.04,East,90,2.0,6.0,90,0.00,,---,0.00,VWS V14.01,2013-06-01 06:26:00,
2013-06-01 02:31:00,75.0,71.5,30.04,South,180,0.0,5.0,89,0.00,,---,0.00,VWS V14.01,2013-06-01 06:31:00,
2013-06-01 02:36:00,76.0,72.9,30.03,East,90,3.0,9.0,90,0.00,,---,0.00,VWS V14.01,2013-06-01 06:36:00,
2013-06-01 02:41:00,76.0,72.9,30.03,East,90,6.0,9.0,90,0.00,,---,0.00,VWS V14.01,2013-06-01 06:41:00,
2013-06-01 02:46:00,76.0,72.9,30.03,ESE,112,4.0,6.0,90,0.00,,---,0.00,VWS V14.01,2013-06-01 06:46:00,
2013-06-01 02:51:00,76.0,72.9,30.03,East,90,1.0,3.0,90,0.00,,---,0.00,VWS V14.01,2013-06-01 06:51:00,
2013-06-01 02:56:00,76.0,72.9,30.03,East,90,1.0,6.0,90,0.00,,---,0.00,VWS V14.01,2013-06-01 06:56:00,
2013-06-01 03:01:00,75.0,71.5,30.03,East,90,4.0,4.0,89,0.00,,---,0.00,VWS V14.01,2013-06-01 07:01:00,
2013-06-01 03:06:00,75.0,71.5,30.03,ESE,112,2.0,7.0,89,0.00,,---,0.00,VWS V14.01,2013-06-01 07:06:00,
2013-06-01 03:11:00,75.0,71.5,30.03,East,90,1.0,6.0,89,0.00,,---,0.00,VWS V14.01,2013-06-01 07:11:00,
2013-06-01 03:16:00,75.0,71.5,30.03,East,90,1.0,4.0,89,0.00,,---,0.00,VWS V14.01,2013-06-01 07:16:00,
2013-06-01 03:21:00,75.0,71.9,30.03,ESE,112,1.0,4.0,90,0.00,,---,0.00,VWS V14.01,2013-06-01 07:21:00,
2013-06-01 03:27:00,75.0,71.5,30.03,East,90,3.0,9.0,89,0.00,,---,0.00,VWS V14.01,2013-06-01 07:27:00,
2013-06-01 03:32:00,75.0,71.5,30.03,East,90,2.0,7.0,89,0.00,,---,0.00,VWS V14.01,2013-06-01 07:32:00,
2013-06-01 03:37:00,75.0,71.5,30.02,East,90,2.0,6.0,89,0.00,,---,0.00,VWS V14.01,2013-06-01 07:37:00,
2013-06-01 03:42:00,75.0,71.9,30.02,East,90,4.0,7.0,90,0.00,,---,0.00,VWS V14.01,2013-06-01 07:42:00,
2013-06-01 03:47:00,75.0,71.9,30.02,East,90,1.0,6.0,90,0.00,,---,0.00,VWS V14.01,2013-06-01 07:47:00,
2013-06-01 03:52:00,75.0,71.5,30.02,East,90,0.0,5.0,89,0.00,,---,0.00,VWS V14.01,2013-06-01 07:52:00,
2013-06-01 03:57:00,75.0,71.5,30.02,East,90,1.0,3.0,89,0.00,,---,0.00,VWS V14.01,2013-06-01 07:57:00,
2013-06-01 04:02:00,75.0,71.5,30.02,East,90,2.0,6.0,89,0.00,,---,0.00,VWS V14.01,2013-06-01 08:02:00,
2013-06-01 04:07:00,75.0,71.5,30.02,East,90,0.0,5.0,89,0.00,,---,0.00,VWS V14.01,2013-06-01 08:07:00,
2013-06-01 04:12:00,75.0,71.5,30.02,East,90,3.0,3.0,89,0.00,,---,0.00,VWS V14.01,2013-06-01 08:12:00,
2013-06-01 04:17:00,75.0,71.5,30.02,East,90,2.0,5.0,89,0.00,,---,0.00,VWS V14.01,2013-06-01 08:17:00,
2013-06-01 04:22:00,75.0,71.9,30.02,East,90,2.0,6.0,90,0.00,,---,0.00,VWS V14.01,2013-06-01 08:22:00,
2013-06-01 04:27:00,75.0,71.9,30.01,East,90,4.0,7.0,90,0.00,,---,0.00,VWS V14.01,2013-06-01 08:27:00,
2013-06-01 04:32:00,75.0,71.9,30.01,East,90,0.0,4.0,90,0.00,,---,0.00,VWS V14.01,2013-06-01 08:32:00,
2013-06-01 04:37:00,75.0,71.9,30.02,East,90,1.0,6.0,90,0.00,,---,0.00,VWS V14.01,2013-06-01 08:37:00,
2013-06-01 04:42:00,75.0,71.9,30.02,East,90,0.0,4.0,90,0.00,,---,0.00,VWS V14.01,2013-06-01 08:42:00,
2013-06-01 04:47:00,75.0,71.9,30.02,East,90,4.0,7.0,90,0.00,,---,0.00,VWS V14.01,2013-06-01 08:47:00,
2013-06-01 04:52:00,75.0,71.9,30.02,East,90,0.0,5.0,90,0.00,,---,0.00,VWS V14.01,2013-06-01 08:52:00,
2013-06-01 04:57:00,75.0,71.9,30.02,East,90,1.0,4.0,90,0.00,,---,0.00,VWS V14.01,2013-06-01 08:57:00,
2013-06-01 05:02:00,75.0,71.9,30.02,East,90,3.0,7.0,90,0.00,,---,0.00,VWS V14.01,2013-06-01 09:02:00,
2013-06-01 05:07:00,75.0,71.9,30.02,ESE,112,2.0,5.0,90,0.00,,---,0.00,VWS V14.01,2013-06-01 09:07:00,
2013-06-01 05:12:00,75.0,71.9,30.02,ESE,112,4.0,6.0,90,0.00,,---,0.00,VWS V14.01,2013-06-01 09:12:00,
2013-06-01 05:17:00,75.0,71.9,30.02,East,90,1.0,4.0,90,0.00,,---,0.00,VWS V14.01,2013-06-01 09:17:00,
2013-06-01 05:22:00,75.0,71.9,30.02,ESE,112,3.0,5.0,90,0.00,,---,0.00,VWS V14.01,2013-06-01 09:22:00,
2013-06-01 05:27:00,75.0,71.9,30.02,ESE,112,2.0,5.0,90,0.00,,---,0.00,VWS V14.01,2013-06-01 09:27:00,
2013-06-01 05:32:00,75.0,71.9,30.02,ESE,112,3.0,6.0,90,0.00,,---,0.00,VWS V14.01,2013-06-01 09:32:00,
2013-06-01 05:37:00,75.0,71.9,30.02,ESE,112,0.0,3.0,90,0.00,,---,0.00,VWS V14.01,2013-06-01 09:37:00,
2013-06-01 05:42:00,75.0,71.9,30.02,ESE,112,6.0,6.0,90,0.00,,---,0.00,VWS V14.01,2013-06-01 09:42:00,
2013-06-01 05:47:00,75.0,71.9,30.02,ESE,112,6.0,6.0,90,0.00,,---,0.00,VWS V14.01,2013-06-01 09:47:00,
2013-06-01 05:52:00,75.0,71.9,30.02,East,90,3.0,6.0,90,0.00,,---,0.00,VWS V14.01,2013-06-01 09:52:00,
2013-06-01 05:57:00,75.0,71.9,30.02,East,90,1.0,3.0,90,0.00,,---,0.00,VWS V14.01,2013-06-01 09:57:00,
2013-06-01 06:02:00,75.0,71.9,30.02,East,90,3.0,3.0,90,0.00,,---,0.00,VWS V14.01,2013-06-01 10:02:00,
2013-06-01 06:08:00,75.0,72.2,30.02,East,90,4.0,4.0,91,0.00,,---,0.00,VWS V14.01,2013-06-01 10:08:00,
2013-06-01 06:13:00,75.0,71.9,30.03,East,90,3.0,4.0,90,0.00,,---,0.00,VWS V14.01,2013-06-01 10:13:00,
2013-06-01 06:18:00,75.0,72.2,30.03,East,90,4.0,5.0,91,0.00,,---,0.00,VWS V14.01,2013-06-01 10:18:00,
2013-06-01 06:23:00,75.0,71.9,30.03,ESE,112,3.0,4.0,90,0.00,,---,0.00,VWS V14.01,2013-06-01 10:23:00,
2013-06-01 06:28:00,75.0,72.2,30.03,ESE,112,4.0,6.0,91,0.00,,---,0.00,VWS V14.01,2013-06-01 10:28:00,
2013-06-01 06:33:00,75.0,72.2,30.03,ESE,112,2.0,6.0,91,0.00,,---,0.00,VWS V14.01,2013-06-01 10:33:00,
2013-06-01 06:38:00,75.0,71.9,30.03,ESE,112,1.0,3.0,90,0.00,,---,0.00,VWS V14.01,2013-06-01 10:38:00,
2013-06-01 06:43:00,75.0,71.9,30.04,ESE,112,0.0,2.0,90,0.00,,---,0.00,VWS V14.01,2013-06-01 10:43:00,
2013-06-01 06:48:00,75.0,72.2,30.04,ESE,112,0.0,0.0,91,0.00,,---,0.00,VWS V14.01,2013-06-01 10:48:00,
2013-06-01 06:53:00,75.0,72.2,30.04,ESE,112,1.0,3.0,91,0.00,,---,0.00,VWS V14.01,2013-06-01 10:53:00,
2013-06-01 06:58:00,75.0,72.2,30.04,ESE,112,3.0,4.0,91,0.00,,---,0.00,VWS V14.01,2013-06-01 10:58:00,
2013-06-01 07:03:00,75.0,72.2,30.05,ESE,112,0.0,1.0,91,0.00,,---,0.00,VWS V14.01,2013-06-01 11:03:00,
2013-06-01 07:08:00,75.0,72.2,30.05,ESE,112,4.0,5.0,91,0.00,,---,0.00,VWS V14.01,2013-06-01 11:08:00,
2013-06-01 07:13:00,75.0,72.2,30.05,East,90,0.0,7.0,91,0.00,,---,0.00,VWS V14.01,2013-06-01 11:13:00,
2013-06-01 07:18:00,75.0,72.2,30.05,East,90,4.0,7.0,91,0.00,,---,0.00,VWS V14.01,2013-06-01 11:18:00,
2013-06-01 07:23:00,76.0,73.5,30.05,East,90,2.0,8.0,92,0.00,,---,0.00,VWS V14.01,2013-06-01 11:23:00,
2013-06-01 07:28:00,76.0,73.2,30.05,East,90,1.0,3.0,91,0.00,,---,0.00,VWS V14.01,2013-06-01 11:28:00,
2013-06-01 07:33:00,76.0,73.2,30.06,East,90,3.0,5.0,91,0.00,,---,0.00,VWS V14.01,2013-06-01 11:33:00,
2013-06-01 07:38:00,76.0,73.2,30.06,East,90,3.0,7.0,91,0.00,,---,0.00,VWS V14.01,2013-06-01 11:38:00,
2013-06-01 07:43:00,77.0,74.2,30.05,East,90,5.0,7.0,91,0.00,,---,0.00,VWS V14.01,2013-06-01 11:43:00,
2013-06-01 07:48:00,77.0,74.2,30.05,East,90,2.0,6.0,91,0.00,,---,0.00,VWS V14.01,2013-06-01 11:48:00,
2013-06-01 07:53:00,77.0,74.2,30.05,East,90,0.0,2.0,91,0.00,,---,0.00,VWS V14.01,2013-06-01 11:53:00,
2013-06-01 07:59:00,77.0,74.2,30.05,East,90,3.0,6.0,91,0.00,,---,0.00,VWS V14.01,2013-06-01 11:59:00,
2013-06-01 08:04:00,77.0,73.8,30.06,East,90,1.0,7.0,90,0.00,,---,0.00,VWS V14.01,2013-06-01 12:04:00,
2013-06-01 08:09:00,77.0,73.8,30.06,SE,135,2.0,6.0,90,0.00,,---,0.00,VWS V14.01,2013-06-01 12:09:00,
2013-06-01 08:14:00,78.0,74.8,30.05,ESE,112,1.0,6.0,90,0.00,,---,0.00,VWS V14.01,2013-06-01 12:14:00,
2013-06-01 08:19:00,78.0,74.8,30.05,SE,135,1.0,4.0,90,0.00,,---,0.00,VWS V14.01,2013-06-01 12:19:00,
2013-06-01 08:24:00,78.0,74.5,30.06,East,90,6.0,6.0,89,0.00,,---,0.00,VWS V14.01,2013-06-01 12:24:00,
2013-06-01 08:29:00,78.0,74.8,30.06,East,90,4.0,8.0,90,0.00,,---,0.00,VWS V14.01,2013-06-01 12:29:00,
2013-06-01 08:34:00,78.0,74.5,30.06,ESE,112,3.0,7.0,89,0.00,,---,0.00,VWS V14.01,2013-06-01 12:34:00,
2013-06-01 08:39:00,78.0,74.8,30.06,ESE,112,5.0,7.0,90,0.00,,---,0.00,VWS V14.01,2013-06-01 12:39:00,
2013-06-01 08:44:00,78.0,74.8,30.06,ESE,112,2.0,6.0,90,0.00,,---,0.00,VWS V14.01,2013-06-01 12:44:00,
2013-06-01 08:49:00,78.0,74.2,30.06,ESE,112,4.0,7.0,88,0.00,,---,0.00,VWS V14.01,2013-06-01 12:49:00,
2013-06-01 08:54:00,78.0,74.8,30.06,East,90,1.0,6.0,90,0.00,,---,0.00,VWS V14.01,2013-06-01 12:54:00,
2013-06-01 08:59:00,78.0,74.2,30.06,ESE,112,3.0,7.0,88,0.00,,---,0.00,VWS V14.01,2013-06-01 12:59:00,
2013-06-01 09:04:00,79.0,75.2,30.05,East,90,4.0,8.0,88,0.00,,---,0.00,VWS V14.01,2013-06-01 13:04:00,
2013-06-01 09:10:00,79.0,74.8,30.05,East,90,2.0,6.0,87,0.00,,---,0.00,VWS V14.01,2013-06-01 13:10:00,
2013-06-01 09:15:00,79.0,74.8,30.05,ESE,112,1.0,7.0,87,0.00,,---,0.00,VWS V14.01,2013-06-01 13:15:00,
2013-06-01 09:20:00,79.0,75.2,30.05,SE,135,1.0,6.0,88,0.00,,---,0.00,VWS V14.01,2013-06-01 13:20:00,
2013-06-01 09:25:00,79.0,75.2,30.05,East,90,1.0,6.0,88,0.00,,---,0.00,VWS V14.01,2013-06-01 13:25:00,
2013-06-01 09:30:00,79.0,74.1,30.05,East,90,3.0,7.0,85,0.00,,---,0.00,VWS V14.01,2013-06-01 13:30:00,
2013-06-01 09:35:00,79.0,74.1,30.04,East,90,2.0,7.0,85,0.00,,---,0.00,VWS V14.01,2013-06-01 13:35:00,
2013-06-01 09:40:00,79.0,74.8,30.04,East,90,0.0,5.0,87,0.00,,---,0.00,VWS V14.01,2013-06-01 13:40:00,
2013-06-01 09:45:00,80.0,75.8,30.04,East,90,7.0,7.0,87,0.00,,---,0.00,VWS V14.01,2013-06-01 13:45:00,
2013-06-01 09:50:00,80.0,75.4,30.04,East,90,0.0,6.0,86,0.00,,---,0.00,VWS V14.01,2013-06-01 13:50:00,
2013-06-01 09:55:00,81.0,75.0,30.04,East,90,6.0,6.0,82,0.00,,---,0.00,VWS V14.01,2013-06-01 13:55:00,
2013-06-01 10:00:00,81.0,75.3,30.04,East,90,4.0,6.0,83,0.00,,---,0.00,VWS V14.01,2013-06-01 14:00:00,
2013-06-01 10:05:00,81.0,74.6,30.04,East,90,7.0,9.0,81,0.00,,---,0.00,VWS V14.01,2013-06-01 14:05:00,
2013-06-01 10:10:00,81.0,74.6,30.04,East,90,6.0,10.0,81,0.00,,---,0.00,VWS V14.01,2013-06-01 14:10:00,
2013-06-01 10:15:00,81.0,75.3,30.04,ESE,112,7.0,7.0,83,0.00,,---,0.00,VWS V14.01,2013-06-01 14:15:00,
2013-06-01 10:20:00,82.0,75.2,30.04,East,90,1.0,7.0,80,0.00,,---,0.00,VWS V14.01,2013-06-01 14:20:00,
2013-06-01 10:25:00,82.0,75.6,30.04,East,90,3.0,6.0,81,0.00,,---,0.00,VWS V14.01,2013-06-01 14:25:00,
2013-06-01 10:30:00,82.0,75.2,30.04,ESE,112,2.0,6.0,80,0.00,,---,0.00,VWS V14.01,2013-06-01 14:30:00,
2013-06-01 10:35:00,83.0,74.3,30.04,East,90,4.0,6.0,75,0.00,,---,0.00,VWS V14.01,2013-06-01 14:35:00,
2013-06-01 10:40:00,83.0,74.7,30.04,East,90,5.0,8.0,76,0.00,,---,0.00,VWS V14.01,2013-06-01 14:40:00,
2013-06-01 10:45:00,84.0,75.6,30.03,East,90,3.0,7.0,76,0.00,,---,0.00,VWS V14.01,2013-06-01 14:45:00,
2013-06-01 10:50:00,84.0,76.4,30.03,East,90,1.0,2.0,78,0.00,,---,0.00,VWS V14.01,2013-06-01 14:50:00,
2013-06-01 10:55:00,84.0,75.6,30.03,East,90,3.0,9.0,76,0.00,,---,0.00,VWS V14.01,2013-06-01 14:55:00,
2013-06-01 11:00:00,84.0,74.4,30.03,East,90,6.0,6.0,73,0.00,,---,0.00,VWS V14.01,2013-06-01 15:00:00,
2013-06-01 11:05:00,83.0,75.1,30.03,ESE,112,2.0,6.0,77,0.00,,---,0.00,VWS V14.01,2013-06-01 15:05:00,
2013-06-01 11:10:00,83.0,75.1,30.03,East,90,7.0,7.0,77,0.00,,---,0.00,VWS V14.01,2013-06-01 15:10:00,
2013-06-01 11:15:00,83.0,75.4,30.03,East,90,3.0,8.0,78,0.00,,---,0.00,VWS V14.01,2013-06-01 15:15:00,
2013-06-01 11:20:00,83.0,75.4,30.03,East,90,7.0,7.0,78,0.00,,---,0.00,VWS V14.01,2013-06-01 15:20:00,
2013-06-01 11:25:00,83.0,76.6,30.04,East,90,1.0,3.0,81,0.00,,---,0.00,VWS V14.01,2013-06-01 15:25:00,
2013-06-01 11:30:00,83.0,75.1,30.04,East,90,4.0,7.0,77,0.00,,---,0.00,VWS V14.01,2013-06-01 15:30:00,
2013-06-01 11:35:00,84.0,76.4,30.03,East,90,4.0,7.0,78,0.00,,---,0.00,VWS V14.01,2013-06-01 15:35:00,
2013-06-01 11:40:00,84.0,76.0,30.03,East,90,1.0,8.0,77,0.00,,---,0.00,VWS V14.01,2013-06-01 15:40:00,
2013-06-01 11:45:00,84.0,76.8,30.03,East,90,5.0,5.0,79,0.00,,---,0.00,VWS V14.01,2013-06-01 15:45:00,
2013-06-01 11:50:00,84.0,76.0,30.03,East,90,2.0,6.0,77,0.00,,---,0.00,VWS V14.01,2013-06-01 15:50:00,
2013-06-01 11:55:00,83.0,75.4,30.04,East,90,3.0,4.0,78,0.00,,---,0.00,VWS V14.01,2013-06-01 15:55:00,
2013-06-01 12:00:00,82.0,75.6,30.04,ESE,112,1.0,7.0,81,0.00,,---,0.00,VWS V14.01,2013-06-01 16:00:00,
2013-06-01 12:05:00,82.0,76.3,30.03,East,90,2.0,6.0,83,0.00,,---,0.00,VWS V14.01,2013-06-01 16:05:00,
2013-06-01 12:10:00,82.0,76.3,30.03,SE,135,1.0,5.0,83,0.00,,---,0.00,VWS V14.01,2013-06-01 16:10:00,
2013-06-01 12:15:00,82.0,77.4,30.03,East,90,2.0,6.0,86,0.00,,---,0.00,VWS V14.01,2013-06-01 16:15:00,
2013-06-01 12:20:00,81.0,76.1,30.03,East,90,1.0,7.0,85,0.00,,---,0.00,VWS V14.01,2013-06-01 16:20:00,
2013-06-01 12:25:00,82.0,76.7,30.03,East,90,7.0,8.0,84,0.00,,---,0.00,VWS V14.01,2013-06-01 16:25:00,
2013-06-01 12:30:00,82.0,75.6,30.03,East,90,2.0,10.0,81,0.00,,---,0.00,VWS V14.01,2013-06-01 16:30:00,
2013-06-01 12:35:00,83.0,77.3,30.03,East,90,5.0,9.0,83,0.00,,---,0.00,VWS V14.01,2013-06-01 16:35:00,
2013-06-01 12:40:00,83.0,74.7,30.03,East,90,6.0,9.0,76,0.00,,---,0.00,VWS V14.01,2013-06-01 16:40:00,
2013-06-01 12:45:00,84.0,77.2,30.02,East,90,6.0,7.0,80,0.00,,---,0.00,VWS V14.01,2013-06-01 16:45:00,
2013-06-01 12:50:00,83.0,75.4,30.02,East,90,0.0,5.0,78,0.00,,---,0.00,VWS V14.01,2013-06-01 16:50:00,
2013-06-01 12:55:00,83.0,75.8,30.02,East,90,3.0,7.0,79,0.00,,---,0.00,VWS V14.01,2013-06-01 16:55:00,
2013-06-01 13:00:00,83.0,74.3,30.02,East,90,4.0,8.0,75,0.00,,---,0.00,VWS V14.01,2013-06-01 17:00:00,
2013-06-01 13:05:00,84.0,76.4,30.02,East,90,6.0,8.0,78,0.00,,---,0.00,VWS V14.01,2013-06-01 17:05:00,
2013-06-01 13:10:00,84.0,75.2,30.02,East,90,6.0,8.0,75,0.00,,---,0.00,VWS V14.01,2013-06-01 17:10:00,
2013-06-01 13:15:00,85.0,76.2,30.02,East,90,1.0,3.0,75,0.00,,---,0.00,VWS V14.01,2013-06-01 17:15:00,
2013-06-01 13:20:00,85.0,76.2,30.02,East,90,2.0,7.0,75,0.00,,---,0.00,VWS V14.01,2013-06-01 17:20:00,
2013-06-01 13:25:00,86.0,77.2,30.02,East,90,4.0,5.0,75,0.00,,---,0.00,VWS V14.01,2013-06-01 17:25:00,
2013-06-01 13:30:00,85.0,75.4,30.02,East,90,4.0,8.0,73,0.00,,---,0.00,VWS V14.01,2013-06-01 17:30:00,
2013-06-01 13:35:00,86.0,77.9,30.01,East,90,3.0,7.0,77,0.00,,---,0.00,VWS V14.01,2013-06-01 17:35:00,
2013-06-01 13:40:00,86.0,76.3,30.01,East,90,4.0,10.0,73,0.00,,---,0.00,VWS V14.01,2013-06-01 17:40:00,
2013-06-01 13:45:00,85.0,77.0,30.01,East,90,2.0,7.0,77,0.00,,---,0.00,VWS V14.01,2013-06-01 17:45:00,
2013-06-01 13:50:00,85.0,74.1,30.01,East,90,10.0,10.0,70,0.00,,---,0.00,VWS V14.01,2013-06-01 17:50:00,
2013-06-01 13:55:00,85.0,74.1,30.01,East,90,6.0,6.0,70,0.00,,---,0.00,VWS V14.01,2013-06-01 17:55:00,
2013-06-01 14:00:00,85.0,75.8,30.01,East,90,4.0,13.0,74,0.00,,---,0.00,VWS V14.01,2013-06-01 18:00:00,
2013-06-01 14:05:00,85.0,76.6,30.01,SE,135,2.0,6.0,76,0.00,,---,0.00,VWS V14.01,2013-06-01 18:05:00,
2013-06-01 14:10:00,85.0,74.1,30.01,East,90,3.0,10.0,70,0.00,,---,0.00,VWS V14.01,2013-06-01 18:10:00,
2013-06-01 14:15:00,86.0,76.8,30.00,East,90,4.0,9.0,74,0.00,,---,0.00,VWS V14.01,2013-06-01 18:15:00,
2013-06-01 14:20:00,86.0,75.9,30.00,East,90,9.0,9.0,72,0.00,,---,0.00,VWS V14.01,2013-06-01 18:20:00,
2013-06-01 14:25:00,86.0,75.9,29.99,East,90,4.0,5.0,72,0.00,,---,0.00,VWS V14.01,2013-06-01 18:25:00,
2013-06-01 14:30:00,86.0,74.2,29.99,East,90,4.0,9.0,68,0.00,,---,0.00,VWS V14.01,2013-06-01 18:30:00,
2013-06-01 14:35:00,86.0,77.2,29.99,East,90,0.0,7.0,75,0.00,,---,0.00,VWS V14.01,2013-06-01 18:35:00,
2013-06-01 14:40:00,86.0,75.9,29.99,East,90,3.0,4.0,72,0.00,,---,0.00,VWS V14.01,2013-06-01 18:40:00,
2013-06-01 14:45:00,86.0,75.1,29.99,East,90,3.0,7.0,70,0.00,,---,0.00,VWS V14.01,2013-06-01 18:45:00,
2013-06-01 14:50:00,86.0,75.9,29.99,East,90,2.0,7.0,72,0.00,,---,0.00,VWS V14.01,2013-06-01 18:50:00,
2013-06-01 14:55:00,86.0,75.5,29.99,East,90,6.0,7.0,71,0.00,,---,0.00,VWS V14.01,2013-06-01 18:55:00,
2013-06-01 15:00:00,85.0,75.0,29.99,East,90,4.0,10.0,72,0.00,,---,0.00,VWS V14.01,2013-06-01 19:00:00,
2013-06-01 15:05:00,85.0,76.2,29.99,East,90,4.0,7.0,75,0.00,,---,0.00,VWS V14.01,2013-06-01 19:05:00,
2013-06-01 15:10:00,85.0,76.6,29.99,East,90,4.0,11.0,76,0.00,,---,0.00,VWS V14.01,2013-06-01 19:10:00,
2013-06-01 15:15:00,85.0,75.4,29.99,ESE,112,1.0,4.0,73,0.00,,---,0.00,VWS V14.01,2013-06-01 19:15:00,
2013-06-01 15:20:00,85.0,74.6,29.99,East,90,4.0,6.0,71,0.00,,---,0.00,VWS V14.01,2013-06-01 19:20:00,
2013-06-01 15:25:00,86.0,77.2,29.98,East,90,2.0,7.0,75,0.00,,---,0.00,VWS V14.01,2013-06-01 19:25:00,
2013-06-01 15:30:00,86.0,75.1,29.98,East,90,4.0,7.0,70,0.00,,---,0.00,VWS V14.01,2013-06-01 19:30:00,
2013-06-01 15:35:00,85.0,74.6,29.98,East,90,1.0,10.0,71,0.00,,---,0.00,VWS V14.01,2013-06-01 19:35:00,
2013-06-01 15:40:00,86.0,76.3,29.98,East,90,1.0,7.0,73,0.00,,---,0.00,VWS V14.01,2013-06-01 19:40:00,
2013-06-01 15:46:00,86.0,76.3,29.98,East,90,3.0,6.0,73,0.00,,---,0.00,VWS V14.01,2013-06-01 19:46:00,
2013-06-01 15:51:00,86.0,75.5,29.98,East,90,4.0,5.0,71,0.00,,---,0.00,VWS V14.01,2013-06-01 19:51:00,
2013-06-01 15:56:00,85.0,75.8,29.97,East,90,7.0,7.0,74,0.00,,---,0.00,VWS V14.01,2013-06-01 19:56:00,
2013-06-01 16:01:00,84.0,74.8,29.97,East,90,4.0,7.0,74,0.00,,---,0.00,VWS V14.01,2013-06-01 20:01:00,
2013-06-01 16:06:00,84.0,75.2,29.98,East,90,1.0,7.0,75,0.00,,---,0.00,VWS V14.01,2013-06-01 20:06:00,
2013-06-01 16:11:00,83.0,73.9,29.98,East,90,9.0,10.0,74,0.00,,---,0.00,VWS V14.01,2013-06-01 20:11:00,
2013-06-01 16:16:00,83.0,74.7,29.98,East,90,3.0,9.0,76,0.00,,---,0.00,VWS V14.01,2013-06-01 20:16:00,
2013-06-01 16:21:00,83.0,75.4,29.98,East,90,6.0,8.0,78,0.00,,---,0.00,VWS V14.01,2013-06-01 20:21:00,
2013-06-01 16:26:00,83.0,76.2,29.99,East,90,3.0,9.0,80,0.00,,---,0.00,VWS V14.01,2013-06-01 20:26:00,
2013-06-01 16:31:00,83.0,76.6,29.99,East,90,0.0,3.0,81,0.00,,---,0.00,VWS V14.01,2013-06-01 20:31:00,
2013-06-01 16:36:00,82.0,74.8,29.98,East,90,7.0,10.0,79,0.00,,---,0.00,VWS V14.01,2013-06-01 20:36:00,
2013-06-01 16:41:00,82.0,76.0,29.98,East,90,3.0,9.0,82,0.00,,---,0.00,VWS V14.01,2013-06-01 20:41:00,
2013-06-01 16:46:00,81.0,74.6,29.98,East,90,9.0,10.0,81,0.00,,---,0.00,VWS V14.01,2013-06-01 20:46:00,
2013-06-01 16:51:00,81.0,75.7,29.98,ESE,112,4.0,5.0,84,0.00,,---,0.00,VWS V14.01,2013-06-01 20:51:00,
2013-06-01 16:56:00,82.0,76.3,29.98,East,90,5.0,9.0,83,0.00,,---,0.00,VWS V14.01,2013-06-01 20:56:00,
2013-06-01 17:01:00,82.0,76.3,29.98,SE,135,1.0,4.0,83,0.00,,---,0.00,VWS V14.01,2013-06-01 21:01:00,
2013-06-01 17:06:00,82.0,74.8,29.98,East,90,3.0,10.0,79,0.00,,---,0.00,VWS V14.01,2013-06-01 21:06:00,
2013-06-01 17:11:00,82.0,75.6,29.98,East,90,2.0,7.0,81,0.00,,---,0.00,VWS V14.01,2013-06-01 21:11:00,
2013-06-01 17:16:00,82.0,75.6,29.98,ESE,112,1.0,8.0,81,0.00,,---,0.00,VWS V14.01,2013-06-01 21:16:00,
2013-06-01 17:21:00,81.0,74.6,29.98,East,90,2.0,7.0,81,0.00,,---,0.00,VWS V14.01,2013-06-01 21:21:00,
2013-06-01 17:26:00,81.0,75.0,29.98,East,90,4.0,7.0,82,0.00,,---,0.00,VWS V14.01,2013-06-01 21:26:00,
2013-06-01 17:31:00,81.0,75.3,29.98,SE,135,1.0,9.0,83,0.00,,---,0.00,VWS V14.01,2013-06-01 21:31:00,
2013-06-01 17:36:00,81.0,74.6,29.99,East,90,3.0,12.0,81,0.00,,---,0.00,VWS V14.01,2013-06-01 21:36:00,
2013-06-01 17:41:00,80.0,74.4,29.99,East,90,2.0,7.0,83,0.00,,---,0.00,VWS V14.01,2013-06-01 21:41:00,
2013-06-01 17:46:00,80.0,74.7,29.99,East,90,6.0,9.0,84,0.00,,---,0.00,VWS V14.01,2013-06-01 21:46:00,
2013-06-01 17:51:00,79.0,75.2,29.99,East,90,4.0,6.0,88,0.00,,---,0.00,VWS V14.01,2013-06-01 21:51:00,
2013-06-01 17:56:00,78.0,74.8,29.99,East,90,3.0,7.0,90,0.00,,---,0.00,VWS V14.01,2013-06-01 21:56:00,
2013-06-01 18:01:00,77.0,73.8,29.99,East,90,3.0,6.0,90,0.00,,---,0.00,VWS V14.01,2013-06-01 22:01:00,
2013-06-01 18:06:00,77.0,73.8,30.00,East,90,1.0,7.0,90,0.00,,---,0.00,VWS V14.01,2013-06-01 22:06:00,
2013-06-01 18:11:00,77.0,73.8,30.00,ESE,112,1.0,4.0,90,0.00,,---,0.00,VWS V14.01,2013-06-01 22:11:00,
2013-06-01 18:16:00,77.0,74.2,30.01,East,90,1.0,4.0,91,0.00,,---,0.00,VWS V14.01,2013-06-01 22:16:00,
2013-06-01 18:21:00,77.0,74.2,30.01,East,90,3.0,6.0,91,0.00,,---,0.00,VWS V14.01,2013-06-01 22:21:00,
2013-06-01 18:26:00,77.0,73.8,30.01,East,90,8.0,8.0,90,0.00,,---,0.00,VWS V14.01,2013-06-01 22:26:00,
2013-06-01 18:31:00,76.0,73.2,30.01,East,90,0.0,1.0,91,0.00,,---,0.00,VWS V14.01,2013-06-01 22:31:00,
2013-06-01 18:36:00,76.0,73.2,30.01,East,90,1.0,4.0,91,0.01,,---,0.01,VWS V14.01,2013-06-01 22:36:00,
2013-06-01 18:41:00,76.0,72.9,30.01,East,90,1.0,7.0,90,0.04,,---,0.04,VWS V14.01,2013-06-01 22:41:00,
2013-06-01 18:46:00,75.0,71.5,30.01,ESE,112,3.0,3.0,89,0.04,,---,0.04,VWS V14.01,2013-06-01 22:46:00,
2013-06-01 18:51:00,75.0,71.5,30.01,ESE,112,6.0,7.0,89,0.04,,---,0.04,VWS V14.01,2013-06-01 22:51:00,
2013-06-01 18:56:00,75.0,71.5,30.01,ESE,112,3.0,3.0,89,0.04,,---,0.04,VWS V14.01,2013-06-01 22:56:00,
2013-06-01 19:01:00,75.0,71.5,30.01,ESE,112,2.0,4.0,89,0.04,,---,0.04,VWS V14.01,2013-06-01 23:01:00,
2013-06-01 19:06:00,75.0,71.5,30.01,ESE,112,3.0,3.0,89,0.04,,---,0.04,VWS V14.01,2013-06-01 23:06:00,
2013-06-01 19:11:00,75.0,71.2,30.01,ESE,112,0.0,1.0,88,0.04,,---,0.04,VWS V14.01,2013-06-01 23:11:00,
2013-06-01 19:16:00,75.0,71.2,30.01,East,90,1.0,4.0,88,0.04,,---,0.04,VWS V14.01,2013-06-01 23:16:00,
2013-06-01 19:21:00,75.0,71.2,30.01,East,90,3.0,8.0,88,0.04,,---,0.04,VWS V14.01,2013-06-01 23:21:00,
2013-06-01 19:26:00,76.0,72.5,30.01,ESE,112,3.0,4.0,89,0.04,,---,0.04,VWS V14.01,2013-06-01 23:26:00,
2013-06-01 19:31:00,76.0,72.5,30.01,NNW,337,3.0,3.0,89,0.04,,---,0.04,VWS V14.01,2013-06-01 23:31:00,
2013-06-01 19:36:00,76.0,72.9,30.01,ESE,112,0.0,5.0,90,0.03,,---,0.04,VWS V14.01,2013-06-01 23:36:00,
2013-06-01 19:41:00,76.0,72.9,30.01,ESE,112,0.0,1.0,90,0.01,,---,0.04,VWS V14.01,2013-06-01 23:41:00,
2013-06-01 19:46:00,76.0,72.9,30.02,ESE,112,2.0,6.0,90,0.00,,---,0.04,VWS V14.01,2013-06-01 23:46:00,
2013-06-01 19:51:00,76.0,72.9,30.02,SE,135,2.0,4.0,90,0.01,,---,0.05,VWS V14.01,2013-06-01 23:51:00,
2013-06-01 19:56:00,76.0,72.9,30.03,SE,135,1.0,3.0,90,0.01,,---,0.05,VWS V14.01,2013-06-01 23:56:00,
2013-06-01 20:01:00,76.0,72.9,30.03,ESE,112,1.0,4.0,90,0.01,,---,0.05,VWS V14.01,2013-06-02 00:01:00,
2013-06-01 20:06:00,76.0,72.9,30.02,ESE,112,1.0,3.0,90,0.01,,---,0.05,VWS V14.01,2013-06-02 00:06:00,
2013-06-01 20:11:00,76.0,72.9,30.02,ESE,112,0.0,3.0,90,0.01,,---,0.05,VWS V14.01,2013-06-02 00:11:00,
2013-06-01 20:16:00,76.0,72.9,30.02,East,90,4.0,5.0,90,0.01,,---,0.05,VWS V14.01,2013-06-02 00:16:00,
2013-06-01 20:21:00,76.0,72.9,30.02,SE,135,0.0,0.0,90,0.01,,---,0.05,VWS V14.01,2013-06-02 00:21:00,
2013-06-01 20:26:00,75.0,71.5,30.02,SE,135,1.0,3.0,89,0.01,,---,0.05,VWS V14.01,2013-06-02 00:26:00,
2013-06-01 20:31:00,75.0,71.5,30.02,SE,135,1.0,3.0,89,0.01,,---,0.05,VWS V14.01,2013-06-02 00:31:00,
2013-06-01 20:36:00,75.0,71.5,30.02,SE,135,0.0,1.0,89,0.01,,---,0.05,VWS V14.01,2013-06-02 00:36:00,
2013-06-01 20:41:00,75.0,71.5,30.02,SE,135,0.0,0.0,89,0.01,,---,0.05,VWS V14.01,2013-06-02 00:41:00,
2013-06-01 20:46:00,75.0,71.5,30.03,ESE,112,0.0,1.0,89,0.01,,---,0.05,VWS V14.01,2013-06-02 00:46:00,
2013-06-01 20:51:00,75.0,71.5,30.03,East,90,4.0,6.0,89,0.00,,---,0.05,VWS V14.01,2013-06-02 00:51:00,
2013-06-01 20:56:00,75.0,71.5,30.02,East,90,0.0,2.0,89,0.00,,---,0.05,VWS V14.01,2013-06-02 00:56:00,
2013-06-01 21:01:00,76.0,72.9,30.02,NNE,22,0.0,1.0,90,0.00,,---,0.05,VWS V14.01,2013-06-02 01:01:00,
2013-06-01 21:06:00,76.0,72.9,30.03,East,90,0.0,0.0,90,0.00,,---,0.05,VWS V14.01,2013-06-02 01:06:00,
2013-06-01 21:11:00,76.0,72.9,30.03,East,90,1.0,2.0,90,0.00,,---,0.05,VWS V14.01,2013-06-02 01:11:00,
2013-06-01 21:16:00,76.0,72.9,30.03,East,90,2.0,3.0,90,0.00,,---,0.05,VWS V14.01,2013-06-02 01:16:00,
2013-06-01 21:21:00,76.0,72.9,30.03,East,90,2.0,3.0,90,0.00,,---,0.05,VWS V14.01,2013-06-02 01:21:00,
2013-06-01 21:26:00,76.0,72.9,30.02,ESE,112,1.0,5.0,90,0.00,,---,0.05,VWS V14.01,2013-06-02 01:26:00,
2013-06-01 21:31:00,76.0,72.9,30.02,ESE,112,0.0,0.0,90,0.00,,---,0.05,VWS V14.01,2013-06-02 01:31:00,
2013-06-01 21:36:00,76.0,72.9,30.03,ESE,112,0.0,2.0,90,0.00,,---,0.05,VWS V14.01,2013-06-02 01:36:00,
2013-06-01 21:41:00,76.0,72.9,30.03,East,90,0.0,0.0,90,0.00,,---,0.05,VWS V14.01,2013-06-02 01:41:00,
2013-06-01 21:46:00,76.0,72.9,30.03,East,90,1.0,4.0,90,0.00,,---,0.05,VWS V14.01,2013-06-02 01:46:00,
2013-06-01 21:51:00,76.0,72.9,30.03,East,90,0.0,0.0,90,0.00,,---,0.05,VWS V14.01,2013-06-02 01:51:00,
2013-06-01 21:56:00,76.0,72.9,30.03,East,90,0.0,1.0,90,0.00,,---,0.05,VWS V14.01,2013-06-02 01:56:00,
2013-06-01 22:01:00,76.0,72.9,30.03,East,90,1.0,3.0,90,0.00,,---,0.05,VWS V14.01,2013-06-02 02:01:00,
2013-06-01 22:06:00,76.0,72.9,30.03,East,90,2.0,4.0,90,0.00,,---,0.05,VWS V14.01,2013-06-02 02:06:00,
2013-06-01 22:11:00,76.0,72.9,30.03,East,90,2.0,3.0,90,0.00,,---,0.05,VWS V14.01,2013-06-02 02:11:00,
2013-06-01 22:16:00,76.0,72.9,30.03,East,90,0.0,2.0,90,0.00,,---,0.05,VWS V14.01,2013-06-02 02:16:00,
2013-06-01 22:21:00,76.0,73.2,30.03,East,90,1.0,6.0,91,0.00,,---,0.05,VWS V14.01,2013-06-02 02:21:00,
2013-06-01 22:26:00,76.0,73.2,30.03,East,90,1.0,2.0,91,0.00,,---,0.05,VWS V14.01,2013-06-02 02:26:00,
2013-06-01 22:31:00,76.0,73.2,30.03,East,90,2.0,3.0,91,0.00,,---,0.05,VWS V14.01,2013-06-02 02:31:00,
2013-06-01 22:36:00,76.0,73.2,30.03,East,90,2.0,2.0,91,0.00,,---,0.05,VWS V14.01,2013-06-02 02:36:00,
2013-06-01 22:41:00,76.0,73.2,30.03,East,90,0.0,1.0,91,0.00,,---,0.05,VWS V14.01,2013-06-02 02:41:00,
2013-06-01 22:46:00,76.0,73.2,30.04,SE,135,0.0,0.0,91,0.00,,---,0.05,VWS V14.01,2013-06-02 02:46:00,
2013-06-01 22:51:00,76.0,73.2,30.04,SE,135,3.0,5.0,91,0.00,,---,0.05,VWS V14.01,2013-06-02 02:51:00,
2013-06-01 22:56:00,76.0,73.2,30.04,SE,135,1.0,3.0,91,0.00,,---,0.05,VWS V14.01,2013-06-02 02:56:00,
2013-06-01 23:01:00,76.0,73.2,30.04,SE,135,1.0,4.0,91,0.00,,---,0.05,VWS V14.01,2013-06-02 03:01:00,
2013-06-01 23:06:00,76.0,73.2,30.03,SE,135,0.0,0.0,91,0.00,,---,0.05,VWS V14.01,2013-06-02 03:06:00,
2013-06-01 23:11:00,76.0,73.2,30.03,ESE,112,4.0,6.0,91,0.00,,---,0.05,VWS V14.01,2013-06-02 03:11:00,
2013-06-01 23:16:00,76.0,73.2,30.03,ESE,112,3.0,6.0,91,0.00,,---,0.05,VWS V14.01,2013-06-02 03:16:00,
2013-06-01 23:21:00,76.0,73.2,30.03,ESE,112,0.0,3.0,91,0.00,,---,0.05,VWS V14.01,2013-06-02 03:21:00,
2013-06-01 23:26:00,76.0,73.2,30.03,ESE,112,0.0,4.0,91,0.00,,---,0.05,VWS V14.01,2013-06-02 03:26:00,
2013-06-01 23:31:00,76.0,73.2,30.03,ESE,112,0.0,0.0,91,0.00,,---,0.05,VWS V14.01,2013-06-02 03:31:00,
2013-06-01 23:36:00,76.0,73.2,30.03,ESE,112,0.0,2.0,91,0.00,,---,0.05,VWS V14.01,2013-06-02 03:36:00,
2013-06-01 23:41:00,76.0,73.2,30.03,ESE,112,3.0,4.0,91,0.00,,---,0.05,VWS V14.01,2013-06-02 03:41:00,
2013-06-01 23:46:00,76.0,73.2,30.03,ESE,112,0.0,0.0,91,0.00,,---,0.05,VWS V14.01,2013-06-02 03:46:00,
2013-06-01 23:52:00,76.0,73.2,30.03,ESE,112,1.0,3.0,91,0.00,,---,0.05,VWS V14.01,2013-06-02 03:52:00,
2013-06-01 23:57:00,76.0,73.2,30.03,ESE,112,0.0,0.0,91,0.00,,---,0.05,VWS V14.01,2013-06-02 03:57:00,